This is the latest recevied weather packets stored in our database for station/object EA1CUE-WX. If no packets are shown the sender has not sent any weather packets the latest 10 day(s).
| Time | Temp. | Humidity | Pressure | Rain* | Wind** | Luminosity | Snow |
|---|---|---|---|---|---|---|---|
| 1778220827 | 7.78° C | 1% | 1007.3 hPa | 0.76 mm | - | - | - |
| 1778220527 | 7.78° C | 1% | 1007.2 hPa | 1.02 mm | - | - | - |
| 1778220227 | 7.78° C | 1% | 1007.2 hPa | 1.27 mm | - | - | - |
| 1778219927 | 7.78° C | 1% | 1007.2 hPa | 1.27 mm | - | - | - |
| 1778219627 | 7.78° C | 1% | 1007.3 hPa | 1.52 mm | - | - | - |
| 1778219327 | 8.33° C | 1% | 1007.3 hPa | 1.78 mm | - | - | - |
| 1778219027 | 8.33° C | 1% | 1007.3 hPa | 1.78 mm | - | - | - |
| 1778218727 | 7.78° C | 1% | 1007.4 hPa | 1.78 mm | - | - | - |
| 1778218427 | 7.78° C | 1% | 1007.3 hPa | 2.03 mm | - | - | - |
| 1778218127 | 7.78° C | 1% | 1007.1 hPa | 2.03 mm | - | - | - |
| 1778217827 | 7.78° C | 1% | 1007 hPa | 2.03 mm | - | - | - |
| 1778217527 | 7.78° C | 1% | 1006.8 hPa | 1.78 mm | - | - | - |
| 1778217227 | 7.78° C | 1% | 1006.7 hPa | 2.29 mm | - | - | - |
| 1778216927 | 7.78° C | 1% | 1006.7 hPa | 2.03 mm | - | - | - |
| 1778216627 | 7.78° C | 1% | 1006.7 hPa | 1.78 mm | - | - | - |
| 1778216327 | 8.33° C | 1% | 1006.6 hPa | 1.78 mm | - | - | - |
| 1778216027 | 7.78° C | 1% | 1006.7 hPa | 1.52 mm | - | - | - |
| 1778215727 | 7.78° C | 1% | 1006.8 hPa | 1.02 mm | - | - | - |
| 1778215427 | 7.78° C | 1% | 1006.8 hPa | 0.76 mm | - | - | - |
| 1778215127 | 7.78° C | 1% | 1006.8 hPa | 0.51 mm | - | - | - |
| 1778214827 | 7.78° C | 1% | 1006.7 hPa | 0.25 mm | - | - | - |
| 1778214527 | 7.78° C | 1% | 1006.5 hPa | 0.25 mm | - | - | - |
| 1778214227 | 7.78° C | 1% | 1006.7 hPa | 0.25 mm | - | - | - |
| 1778213926 | 7.78° C | 1% | 1006.8 hPa | 0.25 mm | - | - | - |
| 1778213627 | 7.78° C | 1% | 1006.8 hPa | 0 mm | - | - | - |
* Rain latest hour (hover to see other rain measurements)
** Current wind speed in m/s (hover to see current wind gust speed)